contact:dominique.lefevre@mio.osupytheas.fr, maurice.libes@osupytheas.fr, didier.mallarino@osupytheas.fr
Project:EMSO http://www.emso-fr.org/EMSO-France
Depth: 2436.0 m
Title:EMSO Ligure Ouest : Data MII capteur AQUADOPP
Date,Latitude,Longitude,X_East,Y_North,Z_Up,Amplitude_X,Amplitude_Y,Amplitude_Z,Batterie,SoundSpeed,Heading,Pitch,Roll,Pressure,TIS,Speed,Direction
, degrees North, degrees East, m.s-1, m.s-1,m.s-1, 1, 1, 1, Volt, m.s-1, degree, degree, degree, dbar, degree_C, m.s-1, degree
2020-06-29T00:04:03,42.805,6.029,-0.082,0.024,-0.015,104.0,106.0,102.0,13.3,1505.3,326.7,-0.7,1.8,2470.45,13.31,0.085,286.3
2020-06-29T00:07:03,42.805,6.029,-0.044,-0.002,-0.031,104.0,106.0,102.0,13.4,1505.3,325.3,-0.7,1.8,2470.45,13.31,0.044,267.4
2020-06-29T00:10:03,42.805,6.029,-0.059,0.017,-0.02,103.0,106.0,102.0,13.4,1505.3,326.3,-0.7,1.8,2470.439,13.32,0.061,286.1
2020-06-29T00:13:03,42.805,6.029,-0.061,-0.008,-0.037,104.0,107.0,101.0,13.4,1505.3,326.5,-0.7,1.9,2470.487,13.32,0.061,262.5
2020-06-29T00:16:03,42.805,6.029,-0.044,0.016,-0.001,105.0,106.0,101.0,13.4,1505.3,326.1,-0.7,1.8,2470.437,13.32,0.046,290.0
2020-06-29T00:19:03,42.805,6.029,-0.045,0.015,-0.013,104.0,107.0,102.0,13.4,1505.3,326.3,-0.7,1.8,2470.449,13.32,0.047,288.4
2020-06-29T00:22:03,42.805,6.029,-0.044,-0.007,0.002,104.0,106.0,102.0,13.3,1505.3,323.5,-0.7,1.8,2470.466,13.33,0.044,261.0
2020-06-29T00:25:03,42.805,6.029,-0.031,-0.005,-0.004,105.0,106.0,101.0,13.4,1505.3,326.6,-0.7,1.8,2470.468,13.33,0.031,260.8
2020-06-29T00:28:03,42.805,6.029,-0.016,-0.023,0.005,104.0,107.0,101.0,13.4,1505.3,326.0,-0.7,1.8,2470.43,13.33,0.028,214.8
2020-06-29T00:31:03,42.805,6.029,-0.09,-0.001,-0.006,103.0,106.0,102.0,13.4,1505.3,327.1,-0.7,1.8,2470.477,13.33,0.089,269.4
2020-06-29T00:34:03,42.805,6.029,-0.043,0.007,-0.009,103.0,106.0,102.0,13.4,1505.3,327.2,-0.7,1.8,2470.408,13.33,0.043,279.2
2020-06-29T00:37:03,42.805,6.029,-0.057,-0.015,-0.014,103.0,106.0,101.0,13.3,1505.3,326.7,-0.7,1.8,2470.413,13.33,0.058,255.3
2020-06-29T00:40:03,42.805,6.029,-0.062,0.012,-0.017,104.0,106.0,102.0,13.4,1505.3,326.5,-0.7,1.8,2470.412,13.33,0.063,281.0
2020-06-29T00:43:03,42.805,6.029,-0.043,0.016,-0.012,104.0,107.0,101.0,13.4,1505.3,326.8,-0.7,1.8,2470.399,13.33,0.045,290.4
2020-06-29T00:46:03,42.805,6.029,-0.035,0.015,0.062,104.0,106.0,102.0,13.3,1505.3,326.0,-0.7,1.8,2470.463,13.33,0.038,293.2
2020-06-29T00:49:03,42.805,6.029,-0.073,0.01,-0.037,104.0,108.0,102.0,13.4,1505.3,327.2,-0.7,1.8,2470.425,13.33,0.073,277.8
2020-06-29T00:52:03,42.805,6.029,-0.035,-0.008,-0.014,104.0,104.0,102.0,13.3,1505.3,326.7,-0.7,1.8,2470.388,13.33,0.035,257.1
2020-06-29T00:55:03,42.805,6.029,-0.042,0.003,-0.028,104.0,106.0,101.0,13.3,1505.3,326.7,-0.7,1.9,2470.438,13.33,0.042,274.1
2020-06-29T00:58:03,42.805,6.029,-0.062,0.015,0.016,104.0,106.0,102.0,13.4,1505.3,326.1,-0.7,1.8,2470.449,13.33,0.063,283.6
2020-06-29T01:04:03,42.805,6.029,-0.034,0.003,0.004,105.0,107.0,104.0,13.4,1505.3,326.5,-0.7,1.8,2470.472,13.31,0.034,275.0
2020-06-29T01:07:04,42.805,6.029,-0.063,0.008,0.025,105.0,105.0,102.0,13.3,1505.3,324.4,-0.7,1.8,2470.401,13.31,0.063,277.2
2020-06-29T01:10:03,42.805,6.029,-0.055,-0.005,0.003,104.0,107.0,101.0,13.4,1505.3,324.0,-0.7,1.8,2470.462,13.32,0.055,264.8
2020-06-29T01:13:03,42.805,6.029,-0.061,-0.001,0.002,103.0,106.0,101.0,13.4,1505.3,323.3,-0.7,1.9,2470.462,13.32,0.061,269.1
2020-06-29T01:16:03,42.805,6.029,-0.056,0.006,-0.029,104.0,106.0,102.0,13.4,1505.3,327.3,-0.7,1.8,2470.435,13.32,0.056,276.1
2020-06-29T01:19:03,42.805,6.029,-0.032,0.014,0.006,104.0,107.0,101.0,13.3,1505.3,328.3,-0.7,1.8,2470.457,13.33,0.034,293.6
2020-06-29T01:22:03,42.805,6.029,-0.056,0.008,-0.019,104.0,107.0,102.0,13.3,1505.3,326.0,-0.7,1.8,2470.433,13.33,0.056,278.1
2020-06-29T01:25:03,42.805,6.029,-0.047,0.019,-0.006,104.0,106.0,102.0,13.4,1505.3,324.5,-0.7,1.9,2470.433,13.33,0.05,292.0
2020-06-29T01:28:03,42.805,6.029,-0.031,-0.005,0.0,105.0,106.0,102.0,13.4,1505.3,324.0,-0.7,1.8,2470.434,13.33,0.031,260.8
2020-06-29T01:31:03,42.805,6.029,-0.042,0.0,0.001,104.0,107.0,102.0,13.3,1505.3,326.5,-0.7,1.8,2470.444,13.33,0.042,270.0
2020-06-29T01:34:03,42.805,6.029,-0.038,0.004,-0.003,105.0,106.0,101.0,13.4,1505.3,326.0,-0.7,1.8,2470.397,13.33,0.038,276.0
2020-06-29T01:37:03,42.805,6.029,-0.054,0.008,0.005,104.0,106.0,102.0,13.4,1505.3,325.5,-0.7,1.8,2470.416,13.33,0.054,278.4
2020-06-29T01:40:03,42.805,6.029,-0.043,0.001,0.004,104.0,106.0,101.0,13.4,1505.3,325.9,-0.7,1.8,2470.429,13.33,0.043,271.3
2020-06-29T01:43:03,42.805,6.029,-0.061,0.004,0.004,105.0,106.0,102.0,13.3,1505.3,324.8,-0.7,1.8,2470.423,13.33,0.061,273.7
2020-06-29T01:46:03,42.805,6.029,-0.041,0.023,-0.006,104.0,107.0,101.0,13.3,1505.3,323.2,-0.7,1.9,2470.424,13.33,0.047,299.3
2020-06-29T01:49:03,42.805,6.029,-0.058,0.019,-0.013,103.0,107.0,101.0,13.4,1505.3,327.6,-0.7,1.8,2470.407,13.33,0.061,288.1
2020-06-29T01:52:03,42.805,6.029,-0.034,0.007,0.011,105.0,106.0,101.0,13.4,1505.3,324.6,-0.7,1.8,2470.464,13.33,0.034,281.6
2020-06-29T01:55:03,42.805,6.029,-0.066,0.01,-0.019,103.0,106.0,102.0,13.3,1505.3,326.9,-0.7,1.8,2470.405,13.33,0.066,278.6
2020-06-29T01:58:03,42.805,6.029,-0.056,0.005,-0.049,104.0,108.0,100.0,13.4,1505.3,323.3,-0.7,1.8,2470.383,13.33,0.056,275.1
2020-06-29T02:04:03,42.805,6.029,-0.077,0.016,-0.013,104.0,106.0,101.0,13.3,1505.3,325.9,-0.7,1.8,2470.435,13.31,0.078,281.7
2020-06-29T02:07:03,42.805,6.029,-0.042,0.016,-0.022,103.0,107.0,102.0,13.3,1505.3,323.6,-0.7,1.9,2470.45,13.31,0.044,290.9
2020-06-29T02:10:03,42.805,6.029,-0.051,0.005,0.006,104.0,107.0,102.0,13.4,1505.3,327.8,-0.7,1.8,2470.396,13.32,0.051,275.6
2020-06-29T02:13:03,42.805,6.029,-0.042,-0.001,-0.007,103.0,106.0,103.0,13.4,1505.3,325.4,-0.7,1.8,2470.428,13.32,0.042,268.6
2020-06-29T02:16:03,42.805,6.029,-0.024,0.02,0.022,104.0,106.0,103.0,13.3,1505.3,325.0,-0.7,1.8,2470.437,13.33,0.031,309.8
2020-06-29T02:19:03,42.805,6.029,-0.057,0.016,-0.014,104.0,106.0,102.0,13.4,1505.3,325.6,-0.7,1.9,2470.46,13.33,0.059,285.7
2020-06-29T02:22:03,42.805,6.029,-0.054,-0.007,-0.006,104.0,106.0,101.0,13.3,1505.3,326.5,-0.7,1.9,2470.39,13.33,0.054,262.6
2020-06-29T02:25:03,42.805,6.029,-0.06,0.019,-0.002,104.0,107.0,102.0,13.4,1505.3,326.6,-0.7,1.9,2470.436,13.33,0.062,287.6
2020-06-29T02:28:03,42.805,6.029,-0.071,0.004,-0.042,103.0,107.0,102.0,13.4,1505.3,326.1,-0.7,1.8,2470.453,13.33,0.071,273.2
2020-06-29T02:31:03,42.805,6.029,-0.062,0.026,-0.015,104.0,107.0,102.0,13.4,1505.3,323.3,-0.7,1.8,2470.376,13.33,0.067,292.7
2020-06-29T02:34:03,42.805,6.029,-0.064,0.035,0.013,103.0,105.0,101.0,13.3,1505.3,326.5,-0.7,1.9,2470.43,13.33,0.072,298.7
2020-06-29T02:37:03,42.805,6.029,-0.044,0.042,-0.018,105.0,106.0,102.0,13.4,1505.3,327.1,-0.7,1.8,2470.389,13.33,0.06,313.7
2020-06-29T02:40:03,42.805,6.029,-0.058,-0.001,0.0,104.0,107.0,101.0,13.4,1505.3,323.0,-0.7,1.8,2470.463,13.33,0.058,269.0
2020-06-29T02:43:03,42.805,6.029,-0.037,0.005,0.012,104.0,106.0,102.0,13.4,1505.3,323.3,-0.7,1.8,2470.371,13.33,0.037,277.7
2020-06-29T02:46:03,42.805,6.029,-0.025,0.0,0.022,104.0,106.0,101.0,13.4,1505.3,324.0,-0.7,1.9,2470.453,13.33,0.025,270.0
2020-06-29T02:49:03,42.805,6.029,-0.071,0.006,-0.035,105.0,106.0,102.0,13.4,1505.3,324.8,-0.7,1.8,2470.408,13.33,0.071,274.8
2020-06-29T02:52:03,42.805,6.029,-0.051,0.011,-0.008,105.0,105.0,100.0,13.3,1505.3,327.4,-0.7,1.9,2470.409,13.33,0.052,282.2
2020-06-29T02:55:03,42.805,6.029,-0.027,0.019,-0.018,105.0,106.0,101.0,13.4,1505.3,325.7,-0.7,1.8,2470.404,13.33,0.033,305.1
2020-06-29T02:58:03,42.805,6.029,-0.03,0.0,-0.024,103.0,106.0,103.0,13.3,1505.3,325.9,-0.7,1.8,2470.407,13.33,0.03,270.0
2020-06-29T03:04:03,42.805,6.029,-0.032,0.0,0.03,104.0,106.0,102.0,13.3,1505.3,324.7,-0.7,1.8,2470.433,13.31,0.032,270.0
2020-06-29T03:07:03,42.805,6.029,-0.04,0.005,-0.002,105.0,106.0,101.0,13.4,1505.3,323.0,-0.7,1.8,2470.406,13.32,0.04,277.1
2020-06-29T03:10:03,42.805,6.029,-0.034,0.001,-0.01,105.0,106.0,102.0,13.4,1505.3,326.6,-0.7,1.8,2470.409,13.32,0.034,271.7
2020-06-29T03:13:03,42.805,6.029,-0.046,-0.007,0.004,104.0,107.0,102.0,13.4,1505.3,324.7,-0.7,1.8,2470.405,13.32,0.046,261.3
2020-06-29T03:16:03,42.805,6.029,-0.047,0.014,-0.042,104.0,106.0,101.0,13.4,1505.3,328.1,-0.7,1.8,2470.438,13.33,0.049,286.6
2020-06-29T03:19:03,42.805,6.029,-0.041,-0.01,0.0,104.0,105.0,102.0,13.4,1505.3,326.6,-0.7,1.8,2470.425,13.33,0.042,256.3
2020-06-29T03:22:03,42.805,6.029,-0.036,0.011,-0.006,104.0,107.0,101.0,13.4,1505.3,327.2,-0.7,1.8,2470.395,13.33,0.037,287.0
2020-06-29T03:25:03,42.805,6.029,-0.034,0.001,0.023,104.0,106.0,101.0,13.4,1505.3,327.6,-0.7,1.8,2470.392,13.33,0.034,271.7
2020-06-29T03:28:03,42.805,6.029,-0.045,-0.009,-0.035,104.0,106.0,102.0,13.4,1505.3,327.2,-0.7,1.8,2470.38,13.33,0.045,258.7
2020-06-29T03:31:03,42.805,6.029,-0.047,0.002,-0.026,104.0,107.0,102.0,13.3,1505.3,324.6,-0.7,1.8,2470.387,13.33,0.047,272.4
2020-06-29T03:34:03,42.805,6.029,-0.044,-0.008,-0.01,104.0,107.0,102.0,13.4,1505.3,324.9,-0.7,1.9,2470.39,13.33,0.044,259.7
2020-06-29T03:37:03,42.805,6.029,-0.034,-0.007,0.015,104.0,105.0,102.0,13.4,1505.3,326.1,-0.7,1.8,2470.358,13.33,0.034,258.4
2020-06-29T03:40:03,42.805,6.029,-0.038,0.004,0.005,104.0,106.0,102.0,13.4,1505.3,324.3,-0.6,1.8,2470.402,13.33,0.038,276.0
2020-06-29T03:43:03,42.805,6.029,-0.027,-0.009,-0.033,104.0,106.0,102.0,13.4,1505.3,324.1,-0.7,1.8,2470.384,13.33,0.028,251.6
2020-06-29T03:46:03,42.805,6.029,-0.02,0.002,0.034,105.0,107.0,102.0,13.4,1505.3,325.5,-0.7,1.8,2470.37,13.33,0.02,275.7
2020-06-29T03:49:03,42.805,6.029,-0.056,0.002,-0.053,104.0,106.0,102.0,13.4,1505.3,325.0,-0.7,1.9,2470.351,13.33,0.056,272.0
2020-06-29T03:52:03,42.805,6.029,-0.039,-0.007,-0.031,104.0,106.0,101.0,13.4,1505.3,325.3,-0.7,1.8,2470.433,13.33,0.039,259.8
2020-06-29T03:55:03,42.805,6.029,-0.037,-0.001,-0.006,104.0,106.0,102.0,13.4,1505.3,326.7,-0.7,1.9,2470.376,13.33,0.037,268.5
2020-06-29T03:58:03,42.805,6.029,-0.073,-0.006,-0.051,103.0,107.0,101.0,13.4,1505.3,324.4,-0.7,1.8,2470.395,13.33,0.073,265.3
2020-06-29T04:04:03,42.805,6.029,-0.047,0.006,-0.006,103.0,106.0,102.0,13.4,1505.3,325.9,-0.7,1.8,2470.394,13.31,0.047,277.3
2020-06-29T04:07:03,42.805,6.029,-0.032,0.0,-0.025,104.0,108.0,103.0,13.3,1505.3,326.1,-0.7,1.8,2470.406,13.31,0.032,270.0
2020-06-29T04:10:03,42.805,6.029,-0.057,-0.006,-0.008,105.0,107.0,101.0,13.4,1505.3,324.7,-0.7,1.8,2470.367,13.32,0.057,264.0
2020-06-29T04:13:03,42.805,6.029,-0.037,-0.013,-0.029,105.0,104.0,101.0,13.4,1505.3,326.6,-0.7,1.8,2470.399,13.32,0.039,250.6
2020-06-29T04:16:03,42.805,6.029,-0.056,0.021,0.011,104.0,108.0,102.0,13.4,1505.3,328.4,-0.7,1.8,2470.369,13.32,0.059,290.6
2020-06-29T04:19:03,42.805,6.029,-0.035,-0.01,-0.021,104.0,105.0,102.0,13.4,1505.3,323.0,-0.7,1.8,2470.424,13.33,0.036,254.1
2020-06-29T04:22:03,42.805,6.029,-0.038,-0.002,-0.018,105.0,107.0,102.0,13.4,1505.3,323.5,-0.7,1.8,2470.361,13.33,0.038,267.0
2020-06-29T04:25:03,42.805,6.029,-0.044,0.012,0.003,104.0,105.0,100.0,13.4,1505.3,327.0,-0.7,1.8,2470.374,13.33,0.045,285.3
2020-06-29T04:28:03,42.805,6.029,-0.049,-0.008,0.0,105.0,106.0,102.0,13.4,1505.3,323.4,-0.7,1.8,2470.356,13.33,0.049,260.7
2020-06-29T04:31:03,42.805,6.029,-0.041,0.0,-0.019,104.0,106.0,101.0,13.3,1505.3,324.5,-0.7,1.8,2470.425,13.33,0.041,270.0
2020-06-29T04:34:03,42.805,6.029,-0.062,-0.024,-0.031,104.0,106.0,101.0,13.4,1505.3,325.8,-0.7,1.8,2470.369,13.33,0.066,248.8
2020-06-29T04:37:03,42.805,6.029,-0.027,0.004,-0.003,103.0,107.0,102.0,13.4,1505.3,324.5,-0.7,1.8,2470.371,13.33,0.027,278.4
2020-06-29T04:40:03,42.805,6.029,-0.037,-0.011,-0.007,104.0,107.0,102.0,13.3,1505.3,325.3,-0.7,1.8,2470.375,13.33,0.038,253.4
2020-06-29T04:43:03,42.805,6.029,-0.045,-0.004,-0.003,104.0,105.0,102.0,13.4,1505.3,324.0,-0.7,1.8,2470.387,13.33,0.045,264.9
2020-06-29T04:46:03,42.805,6.029,-0.026,-0.004,-0.015,105.0,105.0,101.0,13.4,1505.3,324.2,-0.7,1.8,2470.367,13.33,0.026,261.3
2020-06-29T04:49:03,42.805,6.029,-0.058,0.003,-0.043,105.0,105.0,101.0,13.3,1505.3,323.1,-0.7,1.8,2470.351,13.33,0.058,273.0
2020-06-29T04:52:03,42.805,6.029,-0.04,-0.004,-0.002,103.0,106.0,102.0,13.4,1505.3,326.5,-0.7,1.8,2470.371,13.33,0.04,264.3
2020-06-29T04:55:03,42.805,6.029,-0.043,-0.008,-0.004,104.0,106.0,101.0,13.4,1505.3,326.9,-0.7,1.8,2470.373,13.33,0.043,259.5
2020-06-29T04:58:03,42.805,6.029,-0.058,-0.009,-0.033,104.0,105.0,102.0,13.4,1505.3,323.2,-0.7,1.8,2470.345,13.33,0.058,261.2
2020-06-29T05:04:03,42.805,6.029,-0.037,-0.002,0.0,105.0,106.0,101.0,13.4,1505.3,328.0,-0.7,1.8,2470.377,13.31,0.037,266.9
2020-06-29T05:07:03,42.805,6.029,-0.045,0.004,-0.023,104.0,105.0,101.0,13.4,1505.3,328.6,-0.7,1.8,2470.365,13.31,0.045,275.1
2020-06-29T05:10:03,42.805,6.029,-0.059,0.007,0.012,104.0,105.0,102.0,13.4,1505.3,324.2,-0.7,1.8,2470.376,13.32,0.059,276.8
2020-06-29T05:13:03,42.805,6.029,-0.033,0.007,0.0,106.0,106.0,102.0,13.4,1505.3,325.6,-0.7,1.8,2470.412,13.32,0.033,282.0
2020-06-29T05:16:03,42.805,6.029,-0.049,0.006,0.001,105.0,106.0,101.0,13.4,1505.3,327.9,-0.7,1.8,2470.349,13.32,0.049,277.0
2020-06-29T05:19:03,42.805,6.029,-0.059,-0.004,-0.02,103.0,107.0,102.0,13.3,1505.3,326.7,-0.7,1.8,2470.368,13.32,0.059,266.1
2020-06-29T05:22:03,42.805,6.029,-0.038,-0.003,0.009,102.0,105.0,103.0,13.4,1505.3,324.0,-0.7,1.8,2470.369,13.33,0.038,265.5
2020-06-29T05:25:03,42.805,6.029,-0.035,-0.018,-0.016,104.0,106.0,102.0,13.4,1505.3,325.9,-0.7,1.8,2470.306,13.33,0.039,242.8
2020-06-29T05:28:03,42.805,6.029,-0.027,-0.013,0.021,103.0,106.0,101.0,13.4,1505.3,326.3,-0.7,1.8,2470.361,13.33,0.029,244.3
2020-06-29T05:31:03,42.805,6.029,-0.057,0.002,-0.038,103.0,106.0,102.0,13.4,1505.3,327.5,-0.7,1.9,2470.339,13.33,0.057,272.0
2020-06-29T05:37:03,42.805,6.029,-0.037,-0.008,-0.008,104.0,107.0,102.0,13.4,1505.3,323.4,-0.8,1.8,2470.369,13.31,0.037,257.8
2020-06-29T05:40:03,42.805,6.029,-0.051,0.017,-0.003,106.0,106.0,102.0,13.4,1505.3,324.4,-0.7,1.8,2470.377,13.31,0.053,288.4
2020-06-29T05:43:03,42.805,6.029,-0.053,-0.002,-0.028,108.0,106.0,102.0,13.3,1505.3,328.2,-0.7,1.8,2470.397,13.32,0.053,267.8
2020-06-29T05:46:03,42.805,6.029,-0.049,0.021,-0.009,104.0,106.0,102.0,13.4,1505.3,325.0,-0.7,1.8,2470.336,13.32,0.053,293.2
2020-06-29T05:49:03,42.805,6.029,-0.047,0.009,-0.004,104.0,106.0,102.0,13.4,1505.3,326.1,-0.7,1.8,2470.38,13.32,0.047,280.8
2020-06-29T05:52:03,42.805,6.029,-0.05,0.001,0.009,103.0,106.0,102.0,13.4,1505.3,323.1,-0.7,1.8,2470.297,13.33,0.05,271.1
2020-06-29T05:55:03,42.805,6.029,-0.07,0.006,-0.012,103.0,105.0,102.0,13.4,1505.3,323.1,-0.7,1.8,2470.346,13.33,0.07,274.9
2020-06-29T05:58:03,42.805,6.029,-0.063,-0.005,-0.011,105.0,105.0,103.0,13.3,1505.3,324.7,-0.7,1.8,2470.324,13.33,0.063,265.5
2020-06-29T06:04:03,42.805,6.029,-0.062,0.001,-0.012,103.0,105.0,101.0,13.4,1505.3,326.6,-0.8,1.8,2470.383,13.31,0.062,270.9
2020-06-29T06:07:03,42.805,6.029,-0.044,-0.015,-0.01,104.0,104.0,101.0,13.4,1505.3,327.3,-0.7,1.8,2470.362,13.31,0.046,251.2
2020-06-29T06:10:03,42.805,6.029,-0.046,-0.005,0.009,104.0,106.0,102.0,13.4,1505.3,325.2,-0.8,1.8,2470.386,13.32,0.046,263.8
2020-06-29T06:13:03,42.805,6.029,-0.038,-0.003,-0.01,104.0,107.0,102.0,13.4,1505.3,327.8,-0.7,1.8,2470.349,13.32,0.038,265.5
2020-06-29T06:16:03,42.805,6.029,-0.043,0.004,0.001,103.0,106.0,102.0,13.4,1505.3,326.5,-0.7,1.8,2470.342,13.32,0.043,275.3
2020-06-29T06:19:03,42.805,6.029,-0.058,-0.002,-0.033,104.0,106.0,101.0,13.3,1505.3,324.4,-0.7,1.8,2470.379,13.33,0.058,268.0
2020-06-29T06:22:03,42.805,6.029,-0.036,-0.014,-0.043,103.0,107.0,103.0,13.3,1505.3,324.4,-0.7,1.8,2470.311,13.33,0.038,248.8
2020-06-29T06:25:03,42.805,6.029,-0.041,-0.02,-0.022,102.0,106.0,101.0,13.4,1505.3,328.5,-0.7,1.8,2470.342,13.33,0.045,244.0
2020-06-29T06:28:03,42.805,6.029,-0.076,-0.007,-0.017,105.0,107.0,102.0,13.4,1505.3,326.7,-0.7,1.8,2470.297,13.33,0.076,264.7
2020-06-29T06:31:03,42.805,6.029,-0.035,-0.004,-0.003,103.0,106.0,102.0,13.4,1505.3,327.1,-0.7,1.8,2470.301,13.33,0.035,263.5
2020-06-29T06:34:03,42.805,6.029,-0.026,0.006,0.001,104.0,106.0,101.0,13.3,1505.3,323.4,-0.7,1.8,2470.309,13.33,0.026,283.0
2020-06-29T06:37:03,42.805,6.029,-0.029,0.017,-0.027,104.0,107.0,101.0,13.4,1505.3,323.2,-0.7,1.8,2470.279,13.33,0.033,300.4
2020-06-29T06:40:03,42.805,6.029,-0.028,0.007,0.025,105.0,106.0,102.0,13.3,1505.3,325.1,-0.7,1.8,2470.294,13.33,0.028,284.0
2020-06-29T06:43:03,42.805,6.029,-0.04,0.02,0.0,102.0,107.0,103.0,13.3,1505.3,323.2,-0.7,1.8,2470.308,13.33,0.044,296.6
2020-06-29T06:46:03,42.805,6.029,-0.046,-0.005,0.006,104.0,105.0,102.0,13.4,1505.3,326.1,-0.7,1.8,2470.25,13.33,0.046,263.8
2020-06-29T06:49:03,42.805,6.029,-0.054,0.015,0.0,103.0,107.0,102.0,13.4,1505.3,326.9,-0.7,1.9,2470.326,13.33,0.056,285.5
2020-06-29T06:52:03,42.805,6.029,-0.059,0.005,-0.03,103.0,105.0,103.0,13.4,1505.3,327.8,-0.7,1.9,2470.278,13.33,0.059,274.8
2020-06-29T06:55:03,42.805,6.029,-0.063,-0.004,0.003,105.0,106.0,102.0,13.4,1505.3,326.7,-0.7,1.8,2470.274,13.33,0.063,266.4
2020-06-29T06:58:03,42.805,6.029,-0.064,-0.005,0.0,104.0,106.0,102.0,13.4,1505.3,324.6,-0.7,1.8,2470.278,13.33,0.064,265.5
2020-06-29T07:04:03,42.805,6.029,-0.072,-0.013,-0.054,104.0,106.0,102.0,13.4,1505.3,326.0,-0.8,1.8,2470.308,13.31,0.073,259.8
2020-06-29T07:07:03,42.805,6.029,-0.04,0.009,-0.009,104.0,106.0,102.0,13.4,1505.3,327.7,-0.7,1.8,2470.336,13.31,0.041,282.7
2020-06-29T07:10:03,42.805,6.029,-0.03,0.0,0.001,104.0,107.0,101.0,13.4,1505.3,327.0,-0.7,1.8,2470.313,13.32,0.03,270.0
2020-06-29T07:13:03,42.805,6.029,-0.038,-0.008,-0.037,104.0,106.0,101.0,13.3,1505.3,326.0,-0.7,1.8,2470.321,13.32,0.038,258.1
2020-06-29T07:16:03,42.805,6.029,-0.01,-0.008,-0.026,104.0,106.0,103.0,13.3,1505.3,325.5,-0.7,1.8,2470.275,13.32,0.012,231.3
2020-06-29T07:19:03,42.805,6.029,-0.064,0.019,0.012,104.0,105.0,101.0,13.4,1505.3,325.5,-0.7,1.8,2470.28,13.32,0.066,286.5
2020-06-29T07:22:03,42.805,6.029,-0.019,0.01,0.001,105.0,107.0,100.0,13.3,1505.3,325.7,-0.7,1.8,2470.279,13.32,0.021,297.8
2020-06-29T07:25:03,42.805,6.029,-0.055,0.0,-0.015,105.0,106.0,100.0,13.4,1505.3,323.5,-0.7,1.8,2470.301,13.32,0.055,270.0
2020-06-29T07:28:03,42.805,6.029,-0.026,0.002,-0.016,104.0,106.0,101.0,13.3,1505.3,325.8,-0.7,1.8,2470.262,13.33,0.026,274.4
2020-06-29T07:31:03,42.805,6.029,-0.057,0.004,-0.017,103.0,107.0,102.0,13.3,1505.3,325.3,-0.7,1.8,2470.271,13.33,0.057,274.0
2020-06-29T07:34:03,42.805,6.029,-0.037,-0.024,-0.015,104.0,106.0,101.0,13.4,1505.3,326.1,-0.7,1.8,2470.269,13.33,0.044,237.0
2020-06-29T07:37:03,42.805,6.029,-0.051,-0.01,-0.023,103.0,106.0,101.0,13.3,1505.3,328.0,-0.7,1.8,2470.275,13.33,0.051,258.9
2020-06-29T07:40:03,42.805,6.029,-0.072,0.004,-0.011,104.0,105.0,102.0,13.4,1505.3,327.5,-0.7,1.8,2470.262,13.32,0.072,273.2
2020-06-29T07:43:03,42.805,6.029,-0.082,-0.008,-0.027,104.0,106.0,102.0,13.3,1505.3,324.3,-0.7,1.8,2470.27,13.32,0.082,264.4
2020-06-29T07:46:03,42.805,6.029,-0.044,-0.001,0.002,105.0,106.0,101.0,13.4,1505.3,326.3,-0.7,1.9,2470.219,13.33,0.044,268.7
2020-06-29T07:49:03,42.805,6.029,-0.085,-0.01,-0.019,104.0,105.0,102.0,13.4,1505.3,323.2,-0.7,1.8,2470.269,13.32,0.085,263.3
2020-06-29T07:52:03,42.805,6.029,-0.061,-0.004,-0.01,104.0,105.0,102.0,13.4,1505.3,324.9,-0.7,1.8,2470.241,13.32,0.061,266.3
2020-06-29T07:55:03,42.805,6.029,-0.053,0.0,0.0,104.0,105.0,102.0,13.4,1505.3,325.7,-0.7,1.8,2470.266,13.33,0.053,270.0
2020-06-29T07:58:03,42.805,6.029,-0.056,0.003,0.003,102.0,106.0,102.0,13.4,1505.3,326.0,-0.7,1.8,2470.263,13.33,0.056,273.1
2020-06-29T08:04:03,42.805,6.029,-0.048,-0.007,0.004,104.0,107.0,101.0,13.4,1505.3,327.5,-0.7,1.8,2470.254,13.31,0.048,261.7
2020-06-29T08:07:03,42.805,6.029,-0.064,-0.01,-0.004,104.0,107.0,103.0,13.3,1505.3,327.6,-0.7,1.9,2470.247,13.31,0.064,261.1
2020-06-29T08:10:03,42.805,6.029,-0.043,-0.002,-0.022,105.0,106.0,100.0,13.4,1505.3,327.4,-0.7,1.8,2470.316,13.32,0.043,267.3
2020-06-29T08:13:03,42.805,6.029,-0.051,0.008,-0.039,103.0,106.0,102.0,13.4,1505.3,325.0,-0.7,1.8,2470.288,13.32,0.051,278.9
2020-06-29T08:16:03,42.805,6.029,-0.068,-0.003,-0.046,103.0,107.0,101.0,13.4,1505.3,326.3,-0.7,1.8,2470.273,13.32,0.068,267.5
2020-06-29T08:19:03,42.805,6.029,-0.037,-0.012,-0.024,103.0,107.0,102.0,13.4,1505.3,323.8,-0.7,1.8,2470.271,13.32,0.038,252.0
2020-06-29T08:22:03,42.805,6.029,-0.053,-0.016,-0.016,104.0,106.0,101.0,13.3,1505.3,326.2,-0.7,1.8,2470.276,13.32,0.055,253.2
2020-06-29T08:25:03,42.805,6.029,-0.033,0.013,-0.008,105.0,106.0,102.0,13.4,1505.3,326.7,-0.7,1.8,2470.272,13.33,0.035,291.5
2020-06-29T08:28:03,42.805,6.029,-0.034,-0.012,-0.001,104.0,106.0,102.0,13.4,1505.3,328.3,-0.7,1.8,2470.249,13.33,0.036,250.6
2020-06-29T08:31:03,42.805,6.029,-0.043,-0.011,-0.005,105.0,106.0,102.0,13.3,1505.3,324.1,-0.7,1.8,2470.244,13.33,0.044,255.7
2020-06-29T08:34:03,42.805,6.029,-0.072,0.003,-0.017,103.0,106.0,102.0,13.4,1505.3,325.6,-0.7,1.9,2470.29,13.33,0.072,272.4
2020-06-29T08:37:03,42.805,6.029,-0.045,0.016,-0.01,103.0,107.0,102.0,13.4,1505.3,326.1,-0.7,1.8,2470.259,13.33,0.047,289.6
2020-06-29T08:40:03,42.805,6.029,-0.06,0.001,-0.041,105.0,105.0,101.0,13.4,1505.3,324.1,-0.7,1.8,2470.256,13.33,0.06,271.0
2020-06-29T08:43:03,42.805,6.029,-0.071,-0.002,-0.02,104.0,107.0,102.0,13.3,1505.3,327.9,-0.7,1.8,2470.232,13.33,0.071,268.4
2020-06-29T08:46:03,42.805,6.029,-0.049,-0.005,-0.029,104.0,105.0,102.0,13.4,1505.3,323.3,-0.7,1.9,2470.239,13.33,0.049,264.2
2020-06-29T08:49:03,42.805,6.029,-0.032,-0.014,0.002,104.0,105.0,102.0,13.4,1505.3,326.1,-0.7,1.9,2470.217,13.33,0.034,246.4
2020-06-29T08:52:03,42.805,6.029,-0.045,0.0,-0.024,104.0,106.0,101.0,13.4,1505.3,323.8,-0.6,1.8,2470.266,13.33,0.045,270.0
2020-06-29T08:55:03,42.805,6.029,-0.033,0.005,-0.006,104.0,106.0,102.0,13.4,1505.3,325.1,-0.7,1.9,2470.232,13.33,0.033,278.6
2020-06-29T08:58:03,42.805,6.029,-0.043,-0.012,-0.01,105.0,106.0,101.0,13.3,1505.3,323.1,-0.7,1.8,2470.212,13.33,0.044,254.4
2020-06-29T09:04:03,42.805,6.029,-0.059,-0.009,-0.036,104.0,105.0,102.0,13.4,1505.3,326.2,-0.7,1.8,2470.312,13.31,0.059,261.3
2020-06-29T09:07:03,42.805,6.029,-0.063,-0.004,-0.041,103.0,106.0,102.0,13.3,1505.3,328.1,-0.7,1.8,2470.271,13.31,0.063,266.4
2020-06-29T09:10:03,42.805,6.029,-0.037,0.008,0.004,104.0,105.0,102.0,13.3,1505.3,326.5,-0.7,1.9,2470.256,13.32,0.037,282.2
2020-06-29T09:13:03,42.805,6.029,-0.031,-0.021,-0.017,104.0,105.0,102.0,13.3,1505.3,328.1,-0.7,1.8,2470.242,13.32,0.037,235.9
2020-06-29T09:16:03,42.805,6.029,-0.053,0.011,-0.004,105.0,106.0,102.0,13.3,1505.3,326.4,-0.7,1.8,2470.316,13.32,0.054,281.7
2020-06-29T09:19:03,42.805,6.029,-0.064,-0.009,-0.018,105.0,107.0,102.0,13.4,1505.3,327.0,-0.7,1.8,2470.214,13.32,0.064,262.0
2020-06-29T09:22:03,42.805,6.029,-0.042,0.001,-0.017,105.0,106.0,102.0,13.4,1505.3,327.0,-0.7,1.8,2470.224,13.33,0.042,271.4
2020-06-29T09:25:03,42.805,6.029,-0.049,-0.008,-0.047,105.0,106.0,102.0,13.4,1505.3,326.3,-0.7,1.8,2470.244,13.32,0.049,260.7
2020-06-29T09:28:03,42.805,6.029,-0.046,-0.011,-0.019,105.0,106.0,101.0,13.4,1505.3,325.2,-0.7,1.8,2470.276,13.33,0.047,256.6
2020-06-29T09:31:03,42.805,6.029,-0.05,-0.015,-0.016,103.0,105.0,102.0,13.3,1505.3,323.1,-0.7,1.8,2470.254,13.33,0.052,253.3
2020-06-29T09:34:03,42.805,6.029,-0.068,0.008,-0.017,104.0,106.0,101.0,13.4,1505.3,327.3,-0.7,1.8,2470.281,13.32,0.068,276.7
2020-06-29T09:37:03,42.805,6.029,-0.054,-0.005,-0.014,104.0,105.0,101.0,13.4,1505.3,326.4,-0.7,1.8,2470.297,13.32,0.054,264.7
2020-06-29T09:40:03,42.805,6.029,-0.053,0.001,-0.023,104.0,106.0,102.0,13.3,1505.3,325.6,-0.7,1.9,2470.282,13.32,0.053,271.1
2020-06-29T09:43:03,42.805,6.029,-0.04,0.02,-0.007,104.0,106.0,102.0,13.4,1505.3,326.5,-0.7,1.8,2470.216,13.33,0.044,296.6
2020-06-29T09:46:03,42.805,6.029,-0.051,-0.009,0.003,105.0,105.0,102.0,13.4,1505.3,326.5,-0.7,1.8,2470.268,13.33,0.051,260.0
2020-06-29T09:49:03,42.805,6.029,-0.07,0.001,-0.038,105.0,105.0,102.0,13.4,1505.3,324.8,-0.7,1.8,2470.223,13.33,0.07,270.8
2020-06-29T09:52:03,42.805,6.029,-0.056,-0.012,-0.043,104.0,106.0,102.0,13.4,1505.3,326.3,-0.7,1.8,2470.242,13.33,0.057,257.9
2020-06-29T09:55:03,42.805,6.029,-0.052,-0.004,-0.031,105.0,107.0,102.0,13.4,1505.3,325.7,-0.7,1.8,2470.257,13.33,0.052,265.6